Theta_e
286 285 285 285 286 285 285 286 286 286 286 286 287 289 289 289 290 288 287 288 287 286 287 288 291 293 292 295 292 291 292 292 289 289 289 290 292 294 295 296 298 297 298
286 285 285 285 285 285 285 286 287 286 286 286 286 288 291 289 290 287 286 287 286 285 286 287 289 292 293 294 294 292 293 293 291 288 289 287 288 289 292 294 296 299 297
286 285 285 284 284 285 286 286 287 287 286 286 286 286 288 290 290 287 286 286 285 285 285 285 288 289 290 293 293 289 293 293 293 291 291 291 289 287 288 290 292 294 297
286 285 284 284 284 284 286 286 287 287 286 286 286 286 287 291 292 290 286 285 285 285 285 286 288 289 288 293 294 293 294 292 292 292 291 289 288 286 285 286 286 288 289
285 285 285 285 285 285 285 286 286 286 286 286 286 286 287 289 293 291 286 285 284 284 285 285 287 294 296 295 293 292 293 289 291 291 290 289 288 286 282 288 287 288 289
285 285 286 285 285 284 285 285 285 285 285 285 285 285 285 288 298 299 292 285 285 284 283 284 286 292 294 294 296 295 295 293 285 285 289 288 288 287 288 287 287 286 285
285 286 286 285 285 284 284 284 284 284 283 284 284 284 284 285 298 299 296 286 285 283 283 283 285 290 293 289 290 292 290 294 295 289 287 288 286 286 286 285 283 283 285
285 285 286 285 284 283 283 283 283 283 283 283 283 284 284 286 296 299 296 286 285 284 284 284 284 287 292 288 287 285 285 283 286 289 289 288 287 286 288 287 286 285 286
285 285 286 286 284 283 282 281 282 282 282 282 283 283 283 285 294 297 292 286 286 284 285 285 288 288 296 294 287 285 284 284 290 293 292 293 294 295 291 283 276 278 277
285 286 286 286 284 283 282 282 282 282 283 285 284 284 287 284 291 296 294 287 284 283 283 285 292 293 296 295 288 286 285 285 283 282 282 283 284 284 290 284 284 282 282
286 286 286 286 284 284 283 282 282 282 283 283 284 284 284 285 286 295 296 287 285 283 283 283 285 294 295 294 294 287 288 286 284 285 285 282 281 281 281 281 282 285 283
286 286 286 285 285 286 283 283 283 282 282 282 282 283 285 285 291 294 295 294 293 283 283 283 285 293 293 293 291 293 293 288 282 281 283 284 284 285 286 286 281 281 285
285 285 285 284 285 285 283 283 283 282 282 282 283 283 284 286 286 293 294 294 293 286 285 289 291 291 291 287 291 292 289 282 282 280 279 283 285 286 287 285 283 283 281
284 284 284 283 285 285 285 284 283 283 282 283 284 284 284 284 285 287 286 284 289 286 286 283 288 287 288 286 283 283 282 282 283 280 279 280 282 285 286 286 285 285 284
284 285 284 284 284 283 284 284 284 285 286 284 285 286 285 284 287 293 291 286 285 288 284 282 282 282 282 281 281 281 281 281 280 281 280 280 281 281 283 287 286 285 284
283 284 284 284 284 284 283 284 290 292 294 295 295 292 289 293 296 295 294 293 292 291 282 280 280 280 281 281 281 281 280 281 280 281 281 280 281 281 281 283 285 285 285
283 284 284 287 284 283 283 283 282 286 291 292 293 294 294 294 294 294 293 292 290 287 280 279 280 280 280 281 281 281 281 281 280 280 280 280 281 282 282 281 282 282 283
284 289 284 284 283 283 282 283 283 282 282 283 288 290 292 293 292 292 291 287 282 283 281 280 280 280 280 280 282 282 282 282 280 280 279 280 280 280 280 280 281 280 281
284 284 284 283 283 284 283 283 283 283 282 282 282 285 288 291 290 289 288 282 281 280 280 280 281 280 281 280 281 283 282 281 282 279 279 279 279 279 279 279 279 284 284
285 289 288 284 284 284 283 283 282 282 282 281 281 281 283 283 282 282 282 281 281 280 280 280 281 280 280 281 281 282 283 282 281 280 280 279 279 279 279 279 279 279 280
285 285 289 285 284 283 283 282 282 281 281 281 281 283 289 281 281 281 281 281 280 280 280 280 280 280 281 281 281 281 281 282 282 281 282 282 281 280 280 280 280 279 279
285 284 284 284 284 283 283 282 281 281 281 281 281 283 286 281 281 280 281 281 281 280 280 280 280 280 280 280 281 281 281 282 283 284 283 283 282 281 280 280 280 279 279
285 284 284 284 283 285 283 281 281 281 280 280 281 282 282 282 282 282 282 283 283 282 281 280 280 280 281 281 281 282 283 283 285 286 284 282 281 280 280 279 279 279 279
286 286 286 283 283 281 281 280 280 282 281 281 282 282 282 282 282 283 283 284 283 283 281 280 280 280 281 281 282 283 283 285 288 285 283 281 279 280 279 279 279 279 279
286 285 286 284 282 281 281 281 282 283 283 283 282 282 282 283 283 283 284 283 283 283 281 280 280 281 281 282 282 283 286 289 287 288 282 280 279 280 279 279 279 279 279
287 286 285 284 283 284 284 284 283 283 283 282 282 282 283 283 283 283 283 283 282 282 282 280 281 282 282 282 283 288 289 290 288 288 283 280 280 280 280 280 280 279 279
Wind_Speed
4 4 4 5 5 5 5 5 6 6 6 6 7 8 6 7 7 6 6 6 6 7 7 7 8 7 4 3 2 1 1 1 1 1 2 3 4 6 7 6 5 5 5
4 4 4 4 4 5 6 6 6 6 6 6 6 8 8 6 7 6 6 6 6 8 8 8 8 7 7 4 3 4 2 1 1 1 1 2 3 4 4 4 5 4 4
3 4 4 5 4 5 6 6 6 6 6 6 5 6 9 8 6 6 6 5 6 6 7 8 8 9 7 4 4 3 1 1 2 2 1 1 2 3 4 4 4 4 4
4 4 4 4 5 5 6 6 6 6 6 6 6 6 6 9 9 4 5 6 6 6 6 6 9 8 7 5 5 5 3 2 1 1 1 1 1 1 2 3 4 3 3
4 4 5 5 5 5 6 6 5 6 5 6 6 7 6 7 7 3 4 5 5 6 7 7 7 11 15 14 6 5 5 4 2 1 1 1 0 1 2 1 3 6 4
3 4 4 5 5 6 6 6 6 6 6 6 6 6 7 7 18 13 8 5 6 5 6 7 7 10 9 12 15 14 12 5 3 3 2 2 1 0 1 1 1 3 4
4 4 4 5 5 6 6 6 6 6 5 6 6 6 7 7 16 13 13 4 5 6 6 6 7 6 9 2 10 10 11 12 10 2 3 2 1 3 1 2 2 2 3
4 4 4 4 5 5 5 5 5 4 5 4 5 6 6 6 15 18 8 4 4 6 6 6 6 8 9 4 3 6 6 6 6 4 5 4 3 3 3 3 2 2 4
5 4 4 4 5 5 5 5 4 4 4 4 4 6 6 7 14 16 9 4 5 6 6 6 5 7 14 2 2 4 4 5 8 12 11 11 12 10 2 2 2 2 3
6 5 4 4 4 5 5 5 3 3 4 4 5 5 8 7 12 13 10 3 5 5 6 6 12 11 13 14 1 3 4 2 4 6 7 8 8 7 9 2 2 4 4
5 5 5 5 6 6 5 3 3 4 5 5 5 6 6 6 8 13 14 2 2 3 4 5 5 15 13 12 11 5 3 3 4 2 4 3 3 3 3 3 3 4 4
5 5 6 6 4 4 5 4 4 4 5 5 5 5 4 5 11 10 13 11 9 2 4 4 5 13 13 12 8 11 11 7 3 3 3 3 4 4 2 3 4 4 6
5 6 6 5 5 5 4 5 3 3 3 5 4 4 4 4 4 11 9 11 10 4 3 7 11 12 11 9 12 12 9 3 3 3 3 3 3 3 4 3 3 4 5
6 6 5 5 5 4 4 4 3 4 4 4 4 4 4 4 5 4 3 3 6 5 6 5 6 7 8 7 6 6 4 3 3 3 3 4 4 3 3 2 2 2 3
5 5 5 4 4 5 4 4 4 4 5 4 4 4 4 4 5 8 7 3 3 5 4 3 3 3 4 4 4 4 4 4 3 3 3 4 3 3 3 3 2 2 3
5 4 4 4 4 3 3 5 7 10 11 11 10 6 3 7 12 10 10 9 8 8 3 3 3 3 4 5 5 5 3 6 4 4 3 3 4 4 4 4 3 4 6
6 5 4 5 3 3 3 3 4 5 7 7 8 10 11 10 11 10 11 9 7 6 2 3 3 4 4 4 5 5 4 5 4 4 3 4 4 4 6 5 5 5 6
6 11 4 4 3 3 3 3 3 3 4 4 6 9 9 11 10 10 10 6 4 4 2 3 4 4 4 4 5 5 6 5 4 4 4 4 4 4 5 5 5 6 6
5 4 4 3 3 4 3 3 3 4 3 3 3 5 7 9 8 9 9 3 2 4 3 4 3 4 4 4 4 5 5 5 5 4 4 4 4 3 5 5 5 11 11
5 10 7 3 3 3 2 3 3 3 3 2 2 3 3 5 3 4 3 3 3 4 4 4 4 4 4 4 4 4 5 5 5 4 5 4 5 4 5 5 5 6 6
4 4 7 3 3 3 3 3 3 2 3 2 2 3 7 3 3 3 3 3 3 4 4 4 4 4 4 4 4 4 5 6 5 5 7 7 6 6 5 5 5 5 5
5 4 4 3 3 3 3 2 1 1 1 1 2 3 7 2 3 3 3 4 4 4 3 4 3 4 4 4 4 4 6 7 7 8 8 8 6 6 5 6 6 5 5
6 5 4 3 3 4 2 2 1 1 0 1 2 3 3 3 4 5 5 6 5 5 4 4 4 4 4 4 4 3 5 7 7 9 9 7 5 5 5 6 6 6 5
6 6 5 4 4 3 3 3 2 2 1 0 1 2 3 3 3 4 5 5 6 6 5 4 3 5 5 5 4 4 4 5 6 6 6 5 5 6 4 4 4 6 5
7 6 5 5 4 4 4 4 3 3 1 1 1 1 2 2 3 4 4 4 5 6 6 5 4 5 6 8 7 8 10 12 7 9 4 5 5 7 5 4 4 4 4
7 7 6 5 5 5 4 3 3 3 2 1 0 0 1 2 2 4 4 4 5 6 7 4 5 7 8 6 8 12 13 12 8 12 5 4 5 5 4 5 6 4 5
Wind_Direction
328 318 325 327 321 326 315 314 308 307 326 329 327 322 325 331 333 339 333 347 347 337 340 338 339 338 328 332 347 314 264 211 287 291 310 332 359 359 358 355 16 39 13
297 297 304 304 318 327 319 314 315 315 317 314 326 330 335 330 327 343 338 347 348 344 339 343 339 343 355 344 334 307 281 195 250 314 311 331 13 345 332 350 359 6 351
278 294 305 311 322 311 309 315 316 316 318 324 331 335 331 330 325 340 336 342 347 341 337 338 330 339 357 6 4 334 243 200 231 225 287 17 24 6 342 347 354 358 352
275 283 292 304 303 305 302 307 318 324 329 325 329 321 319 328 317 318 332 344 339 340 336 339 333 328 345 1 2 354 348 273 236 311 91 72 57 343 51 2 341 353 329
264 288 296 303 304 308 311 319 324 323 329 327 340 343 330 323 320 252 2 352 344 337 337 335 331 342 1 360 12 344 348 3 343 356 64 18 37 20 67 7 323 322 306
260 274 303 318 316 312 316 328 331 327 338 338 341 343 334 334 335 9 34 352 338 339 331 324 328 338 334 351 357 360 360 4 24 22 18 2 60 236 237 166 313 339 322
271 295 313 318 315 320 321 332 337 327 327 332 345 342 332 325 340 360 12 345 331 327 325 322 324 324 328 347 347 1 354 1 19 27 347 321 264 223 151 349 292 236 236
268 292 307 315 312 320 328 334 330 325 327 322 327 332 327 316 338 340 6 347 334 325 320 315 308 316 333 105 5 357 350 346 339 335 332 290 248 224 186 190 218 307 292
250 276 296 307 305 316 319 319 307 313 314 322 312 320 328 312 334 330 6 344 340 333 322 327 323 326 331 106 6 338 353 337 342 353 347 344 345 343 171 107 353 31 299
214 237 270 271 267 276 284 295 283 295 292 310 320 325 315 318 325 329 350 346 349 338 329 335 346 337 359 349 18 317 313 341 331 356 349 353 360 353 9 66 226 282 289
210 220 239 237 236 238 250 238 260 288 305 311 315 314 317 317 313 331 344 5 309 335 335 329 326 342 351 353 358 320 303 128 345 3 345 306 322 340 343 337 295 256 263
218 241 251 241 237 237 236 259 260 271 295 302 311 312 312 314 326 331 348 358 359 8 319 310 307 352 354 353 349 343 351 8 346 327 327 323 320 342 279 287 282 248 249
225 243 251 250 250 241 240 256 266 248 270 291 297 300 306 312 311 330 340 354 353 17 309 346 354 356 358 356 351 351 1 349 339 338 319 295 292 282 288 295 298 289 265
224 249 264 263 269 269 278 276 270 272 271 273 286 295 298 310 308 305 315 338 345 351 352 342 356 359 6 5 1 349 335 326 317 308 294 288 296 303 287 253 279 291 284
223 238 254 255 267 279 270 262 260 261 238 260 271 266 284 301 282 327 346 350 333 345 359 339 339 344 341 345 337 328 331 343 343 320 303 302 294 301 294 280 252 264 259
217 227 234 242 253 261 285 298 289 278 285 300 307 309 280 296 333 345 349 358 2 4 19 322 325 331 328 331 331 328 318 341 320 315 303 297 299 301 296 293 281 264 280
207 221 235 251 254 265 271 271 305 322 320 329 340 339 334 336 345 355 356 4 9 21 2 317 322 326 319 322 319 324 316 318 306 312 309 306 303 301 318 296 287 275 279
200 227 208 232 242 258 267 279 285 294 307 312 328 339 350 352 6 12 6 13 353 352 327 318 326 323 320 318 322 322 316 316 313 318 317 311 304 301 307 301 296 289 287
190 204 220 227 231 243 254 268 267 277 286 296 317 343 356 355 17 20 25 24 329 319 326 325 329 323 311 309 306 312 306 315 326 316 305 305 299 298 301 290 290 315 317
193 213 209 210 230 241 250 258 270 275 290 301 314 306 320 12 8 350 7 346 335 320 322 317 323 307 298 310 309 314 313 318 316 310 313 306 300 296 295 295 295 299 303
182 192 214 204 219 232 231 246 261 273 287 307 300 295 351 52 343 350 336 324 319 314 311 310 312 303 309 319 309 321 319 317 318 318 333 327 313 312 303 288 284 283 286
174 181 183 202 219 223 220 223 227 243 312 345 317 320 0 34 355 348 333 326 320 307 299 302 305 307 312 312 310 326 329 330 333 335 330 322 311 308 308 307 310 307 308
169 176 177 180 200 203 164 157 147 155 297 332 341 334 351 349 355 356 352 344 335 319 314 314 320 319 310 306 308 310 324 327 323 325 320 310 309 308 310 311 321 325 323
174 180 174 175 176 179 180 175 177 195 179 128 347 337 331 315 325 318 341 339 338 328 312 310 320 317 317 319 310 300 287 289 309 300 298 304 308 316 310 310 313 316 317
172 170 170 174 170 166 177 183 195 195 198 116 30 343 329 322 343 344 344 354 338 332 315 314 321 320 323 327 326 323 316 328 331 335 326 317 317 322 323 319 328 333 335
169 171 168 166 170 181 184 169 164 166 148 137 113 195 321 349 339 355 4 345 340 336 331 317 326 337 337 325 324 335 340 348 356 357 354 339 337 334 333 340 345 353 355